Waukegan, IL

9:10 PM CST on February 18, 2018 (GMT -0600)
Waukegan Regional

Weather History for KUGN - January, 2014

Change the Weather History Date:

Thursday, January 9, 2014

  Actual Average Record
Temperature  
Mean Temperature 5 °F 24 °F  
Max Temperature 25 °F 31 °F 55 °F (2002)
Min Temperature -15 °F 16 °F -15 °F (2014)
Degree Days  
Heating Degree Days 60 42  
Month to date heating degree days 533 369  
Since 1 July heating degree days 3421 2918  
Cooling Degree Days 0 0  
Month to date cooling degree days 0 0  
Year to date cooling degree days 0 0  
Moisture  
Dew Point 10 °F    
Average Humidity 84    
Maximum Humidity 96    
Minimum Humidity 72    
Precipitation  
Precipitation T in 0.04 in 0.41 in (2009)
Month to date precipitation T 0.40  
Year to date precipitation T 0.40  
Sea Level Pressure  
Sea Level Pressure 30.36 in    
Wind  
Wind Speed 6 mph (SSE)    
Max Wind Speed 18 mph    
Max Gust Speed 24 mph    
Visibility 5 miles    
Events      
T = Trace of Precipitation, MM = Missing Value Source: NWS Daily Summary

Daily Weather History Graph

Daily Weather History Graph

Search for Another Location

Airport or City:

Trip Planner

Search our weather history database for the weather conditions in past years. The results will help you decide how hot, cold, wet, or windy it might be!

Date:

Astronomy

Jan. 09, 2014 Rise Set
Actual Time 7:20 AM CST 4:37 PM CST
Civil Twilight 6:48 AM CST 5:08 PM CST
Nautical Twilight 6:13 AM CST 5:43 PM CST
Astronomical Twilight 5:39 AM CST 6:17 PM CST
Moon 12:06 PM CST (1/9) 1:24 AM CST (1/9)
Length of Visible Light 10h 19m
Length of Day
9h 16m
Waxing Gibbous, 66% of the Moon is Illuminated
Jan 9
Waxing Gibbous
Jan 15
Full
Jan 23
Last Quarter
Jan 30
New
Feb 6
First Quarter

Hourly Weather History & Observations

Time (CST) Temp. Windchill Dew Point Humidity Pressure Visibility Wind Dir Wind Speed Gust Speed Precip Events Conditions
12:52 AM -11.9 °F -21.5 °F -16.1 °F 82% 30.59 in 8.0 mi West 3.5 mph - N/A   Clear
1:52 AM -11.9 °F -21.5 °F -15.0 °F 86% 30.60 in 8.0 mi West 3.5 mph - N/A   Clear
2:52 AM -14.1 °F -23.9 °F -17.0 °F 87% 30.60 in 8.0 mi West 3.5 mph - N/A   Clear
3:52 AM -13.0 °F - -17.0 °F 82% 30.59 in 8.0 mi Calm Calm - N/A   Clear
4:52 AM -14.1 °F - -17.0 °F 87% 30.58 in 8.0 mi Calm Calm - N/A   Clear
5:52 AM -11.9 °F - -15.0 °F 86% 30.57 in 7.0 mi Calm Calm - N/A   Clear
6:52 AM -9.9 °F - -16.1 °F 74% 30.58 in 8.0 mi Calm Calm - N/A   Clear
7:52 AM -9.0 °F - -13.0 °F 83% 30.57 in 6.0 mi Calm Calm - N/A   Clear
8:52 AM -5.1 °F - -9.0 °F 83% 30.56 in 5.0 mi Calm Calm - N/A   Scattered Clouds
9:52 AM 3.0 °F -4.4 °F -0.0 °F 87% 30.53 in 5.0 mi SE 3.5 mph - N/A   Scattered Clouds
10:52 AM 18.0 °F 3.1 °F 12.0 °F 78% 30.48 in 10.0 mi SE 16.1 mph 21.9 mph N/A   Mostly Cloudy
11:05 AM 17.6 °F 3.7 °F 12.2 °F 79% 30.39 in 10.0 mi SE 13.8 mph 24.2 mph N/A   Overcast
11:52 AM 18.0 °F 7.7 °F 12.9 °F 81% 30.45 in 10.0 mi SE 8.1 mph - N/A   Overcast
12:34 PM 19.4 °F 7.9 °F 14.0 °F 80% 30.33 in 8.0 mi SE 10.4 mph - N/A   Overcast
12:52 PM 19.0 °F 10.0 °F 14.0 °F 81% 30.42 in 7.0 mi SSE 6.9 mph - N/A   Overcast
1:52 PM 19.9 °F 11.1 °F 16.0 °F 85% 30.40 in 5.0 mi SE 6.9 mph - 0.00 in   Overcast
2:52 PM 19.9 °F 13.4 °F 17.1 °F 89% 30.38 in 2.5 mi SSE 4.6 mph - N/A   Overcast
3:40 PM 21.2 °F 11.7 °F 17.6 °F 86% 30.28 in 3.0 mi SE 8.1 mph - N/A   Overcast
3:52 PM 21.0 °F 12.4 °F 18.0 °F 88% 30.37 in 3.0 mi SE 6.9 mph - N/A   Overcast
4:07 PM 21.2 °F 13.6 °F 17.6 °F 86% 30.28 in 3.0 mi SE 5.8 mph - N/A   Overcast
4:20 PM 21.2 °F 12.6 °F 19.4 °F 93% 30.27 in 2.5 mi SE 6.9 mph - N/A   Overcast
5:33 PM 21.2 °F 12.6 °F 19.4 °F 93% 30.24 in 2.5 mi SE 6.9 mph - 0.00 in   Overcast
5:52 PM 21.9 °F 11.0 °F 19.9 °F 92% 30.32 in 4.0 mi SE 10.4 mph - 0.00 in   Overcast
6:52 PM 23.0 °F 12.4 °F 21.0 °F 92% 30.31 in 3.0 mi SE 10.4 mph - N/A   Overcast
7:31 PM 23.0 °F 10.6 °F 21.2 °F 93% 30.22 in 2.5 mi SSE 13.8 mph - N/A   Overcast
7:40 PM 23.0 °F 11.7 °F 21.2 °F 93% 30.21 in 3.0 mi SSE 11.5 mph - N/A   Overcast
7:52 PM 24.1 °F 13.7 °F 21.9 °F 91% 30.29 in 2.5 mi SSE 10.4 mph - N/A   Overcast
8:12 PM 24.8 °F 15.3 °F 21.2 °F 86% 30.20 in 3.0 mi SSE 9.2 mph - N/A   Overcast
8:19 PM 24.8 °F 16.9 °F 21.2 °F 86% 30.20 in 3.0 mi SSE 6.9 mph - N/A   Overcast
8:52 PM 24.1 °F 16.0 °F 21.9 °F 91% 30.27 in 3.0 mi South 6.9 mph - N/A   Overcast
9:49 PM 24.8 °F 16.9 °F 21.2 °F 86% 30.17 in 3.0 mi SSE 6.9 mph - N/A   Overcast
9:52 PM 24.1 °F 17.0 °F 21.9 °F 91% 30.25 in 3.0 mi South 5.8 mph - N/A   Overcast
10:09 PM 24.8 °F 16.9 °F 21.2 °F 86% 30.17 in 3.0 mi South 6.9 mph - N/A   Overcast
10:52 PM 24.1 °F 16.0 °F 21.9 °F 91% 30.21 in 3.0 mi SSE 6.9 mph - N/A   Overcast
11:21 PM 24.8 °F 17.9 °F 21.2 °F 86% 30.14 in 2.5 mi South 5.8 mph - N/A   Overcast
11:33 PM 24.8 °F 17.9 °F 21.2 °F 86% 30.14 in 3.0 mi South 5.8 mph - N/A   Overcast
11:52 PM 24.1 °F 17.0 °F 21.9 °F 91% 30.19 in 3.0 mi South 5.8 mph - N/A   Overcast